Gunnison, CO

5:50 PM MST on November 13, 2019 (GMT -0700)
Gunnison County

Weather History for KGUC - July, 2019

Change the Weather History Date:

Wednesday, July 17, 2019

  Actual Average Record
Temperature  
Mean Temperature 68 °F -  
Max Temperature 82 °F 77 °F 87 °F (2003)
Min Temperature 54 °F 44 °F 39 °F (2001)
Cooling Degree Days 3    
Growing Degree Days 18 (Base 50)    
Moisture  
Dew Point 44 °F    
Average Humidity 46    
Maximum Humidity 77    
Minimum Humidity 20    
Precipitation  
Precipitation 0.02 in - - ()
Sea Level Pressure  
Sea Level Pressure 29.98 in    
Wind  
Wind Speed 7 mph (NW)    
Max Wind Speed 20 mph    
Max Gust Speed 25 mph    
Visibility 10 miles    
Events      
Averages and records for this station are not official NWS values.
T = Trace of Precipitation, MM = Missing Value Source: NWS Daily Summary

Daily Weather History Graph

Daily Weather History Graph

Search for Another Location

Airport or City:

Astronomy

Jul. 17, 2019 Rise Set
Actual Time 5:57 AM MDT 8:30 PM MDT
Civil Twilight 5:26 AM MDT 9:00 PM MDT
Nautical Twilight 4:48 AM MDT 9:39 PM MDT
Astronomical Twilight 4:05 AM MDT 10:21 PM MDT
Moon 9:21 PM MDT (7/17) 6:32 AM MDT (7/17)
Length of Visible Light 15h 34m
Length of Day
14h 33m
Full, 99% of the Moon is Illuminated
Jul 17
Full
Jul 24
Last Quarter
Jul 31
New
Aug 7
First Quarter
Aug 15
Full

Hourly Weather History & Observations

Time (MDT) Temp. Dew Point Humidity Pressure Visibility Wind Dir Wind Speed Gust Speed Precip Events Conditions
12:56 AM 68.0 °F 46.9 °F 47% 29.96 in 10.0 mi Variable 4.6 mph - 0.00 in   Scattered Clouds
1:56 AM 62.1 °F 53.1 °F 72% 29.94 in 10.0 mi NNE 8.1 mph - 0.02 in   Partly Cloudy
2:56 AM 57.9 °F 50.0 °F 75% 29.99 in 10.0 mi Calm Calm - N/A   Clear
3:56 AM 57.9 °F 48.0 °F 70% 29.97 in 10.0 mi ENE 10.4 mph - N/A   Mostly Cloudy
4:56 AM 55.9 °F 46.9 °F 72% 30.01 in 10.0 mi NNE 9.2 mph - 0.00 in   Scattered Clouds
5:56 AM 54.0 °F 46.9 °F 77% 30.03 in 10.0 mi North 5.8 mph - N/A   Clear
6:56 AM 55.0 °F 46.9 °F 74% 30.06 in 10.0 mi Calm Calm - N/A   Clear
7:56 AM 57.9 °F 48.0 °F 70% 30.06 in 10.0 mi NNW 3.5 mph - N/A   Clear
8:56 AM 64.9 °F 48.0 °F 54% 30.04 in 10.0 mi Calm Calm - N/A   Clear
9:56 AM 66.9 °F 48.0 °F 51% 30.05 in 10.0 mi Calm Calm - N/A   Clear
10:56 AM 71.1 °F 48.9 °F 45% 30.01 in 10.0 mi Calm Calm - N/A   Clear
11:56 AM 78.1 °F 46.9 °F 33% 29.96 in 10.0 mi SW 8.1 mph - N/A   Clear
12:56 PM 81.0 °F 42.1 °F 25% 29.93 in 10.0 mi WNW 19.6 mph 24.2 mph N/A   Partly Cloudy
1:56 PM 81.0 °F 41.0 °F 24% 29.94 in 10.0 mi WNW 17.3 mph 25.3 mph N/A   Partly Cloudy
2:56 PM 81.0 °F 41.0 °F 24% 29.94 in 10.0 mi West 16.1 mph 24.2 mph N/A   Partly Cloudy
3:56 PM 82.0 °F 39.0 °F 22% 29.94 in 10.0 mi West 13.8 mph 23.0 mph N/A   Partly Cloudy
4:56 PM 82.9 °F 39.9 °F 22% 29.92 in 10.0 mi WSW 13.8 mph 17.3 mph N/A   Scattered Clouds
5:56 PM 81.0 °F 36.0 °F 20% 29.94 in 10.0 mi WSW 16.1 mph - N/A   Clear
6:56 PM 78.1 °F 37.0 °F 23% 29.95 in 10.0 mi WSW 11.5 mph - N/A   Clear
7:56 PM 75.0 °F 39.9 °F 28% 29.95 in 10.0 mi West 6.9 mph - N/A   Clear
8:56 PM 69.1 °F 42.1 °F 38% 29.96 in 10.0 mi West 3.5 mph - N/A   Clear
9:56 PM 64.9 °F 39.0 °F 39% 29.99 in 10.0 mi NNW 6.9 mph - N/A   Clear
10:56 PM 60.1 °F 39.0 °F 46% 30.02 in 10.0 mi North 5.8 mph - N/A   Clear
11:56 PM 55.9 °F 37.0 °F 49% 30.02 in 10.0 mi North 3.5 mph - N/A   Clear